COSMOS 2278

Last updated on Tue Jul 01 2025 00:02:14 GMT+0000 (Coordinated Universal Time)

1 23087U 94023A 25181.60199102 -.00000091 00000+0 -22867-4 0 9993 2 23087 71.0550 342.4808 0007278 41.6206 318.5469 14.14308236609162
UTC large
Height (km)
Speed (km/s)
/
Latitude / Longitude
Inclination (degrees)
Orbital Period (minutes)
Azimuth
Elevation
Range (km)
Doppler Factor

Next 0 passes for location: London (51.5072 / 0.1276)

Sorry there are no passes over London.